Regional Weather Roundup
Issued by NWS

Home | Current Version | Previous Version | Text Only | Print | Product List | Glossary On
Versions: 1 2 3 4 5 6 7 8 9 10 11 12 13 14 15 16 17 18 19 20 21 22 23 24 25 26 27 28 29 30 31 32 33 34 35 36 37 38 39 40 41 42 43 44 45 46 47 48 49 50
000
ASHW40 PHFO 251543
RWRHI

WEATHER ROUNDUP FOR HAWAII
NATIONAL WEATHER SERVICE HONOLULU HI
500 AM HST SAT MAR 25 2017

THIS IS AN AUTOMATED REPORT THAT HAS NOT BEEN QUALITY CONTROLLED.

NOTE..."FAIR" INDICATES FEW OR NO CLOUDS BELOW 12,000 FEET WITH NO
SIGNIFICANT WEATHER AND/OR OBSTRUCTIONS TO VISIBILITY.

* - THESE SITES REPORT LIMITED FIELDS

HIZ001>004-251600-
KAUAI-NIIHAU-

CITY           SKY/WX    TMP DP  RH WIND       PRES   REMARKS
LIHUE APT      MOCLDY    74  70  87 NE13      30.19R
PORT ALLEN*      N/A     66 N/A N/A NE6         N/A
POIPU*           N/A     73 N/A N/A NE7G14      N/A
PRINCEVILLE*     N/A     72 N/A N/A SE6         N/A
KOKOLE POINT*  NOT AVBL
MOLOAA DAIRY*    N/A     73  68  83 SE6G12      N/A
WAIMEA HTS*      N/A     70  59  68 NW2         N/A
PUU OPAE*      NOT AVBL
PUU LUA*       NOT AVBL
MAKAHA RIDGE*    N/A     64  61  88 CALM        N/A
$$

HIZ005>011-251600-
OAHU-

CITY           SKY/WX    TMP DP  RH WIND       PRES   REMARKS
HONOLULU       PTCLDY    71  66  84 N3        30.16S
KALAELOA       CLEAR     68  63  84 NE5       30.17F
KANEOHE MCB    NOT AVBL
WHEELER FIELD  FAIR      64  64  99 NW3       30.16
BELLOWS*         N/A    N/A N/A N/A NE15        N/A
KAHUKU*          N/A    N/A N/A N/A NE8G14      N/A
WHEELER*         N/A    N/A N/A N/A N2          N/A
WAIANAE HARBOR   N/A    N/A N/A N/A NE3         N/A
DILLINGHAM*      N/A     82  82 100 W1          N/A  HX  97
KAHUKU TRN*      N/A     81  79  94 W6G16       N/A
KAWAILOA*        N/A     66  63  88 E7G13       N/A
KII*             N/A     75  68  78 E12G17      N/A
MAKUA RANGE*     N/A     70  66  88 NW7         N/A
OAHU FOREST NW   N/A    N/A N/A N/A MISG        N/A
SCHOFIELD BRK*   N/A     61  61 100 NE1         N/A
SCHOFIELD S*   NOT AVBL
WAIANAE VLY*   NOT AVBL
KUAOKALA*        N/A     70   0   6 E10         N/A
HONOULIUULI*   NOT AVBL
MOKUOLOE IS*   NOT AVBL
PALEHUA*         N/A    N/A N/A N/A NE7G17      N/A
WAIAWA PHB*    NOT AVBL
$$

HIZ012>013-251600-
MOLOKAI-

CITY           SKY/WX    TMP DP  RH WIND       PRES   REMARKS
MOLOKAI AIRPT  CLEAR     70  61  73 N5        30.18R
KALAUPAPA      NOT AVBL
MAKAPULAPAI*     N/A     73  64  73 E15G21      N/A
MOLOKAI 1*     NOT AVBL
PUU ALII*        N/A     56  49  77 NE1G8       N/A
$$

HIZ016-251600-
KAHOOLAWE-

CITY           SKY/WX    TMP DP  RH WIND       PRES   REMARKS
KAHOOLAWE*     NOT AVBL
HAKIOAWA*        N/A     67  63  87 MISG      30.58R
HONOKANAIA*      N/A     74  64  72 NE10G23   30.09
KANELOA*         N/A     72  66  83 NE14G21   30.21F
KEALIALALO*    NOT AVBL
LUA MAKIKA*    NOT AVBL
$$

HIZ014>015-251600-
LANAI-

CITY           SKY/WX    TMP DP  RH WIND       PRES   REMARKS
LANAI CITY     FAIR      65  61  87 E6        30.21S
LANAI 1*       NOT AVBL
$$

HIZ017>028-251600-
MAUI-

CITY           SKY/WX    TMP DP  RH WIND       PRES   REMARKS
KAHULUI        CLEAR     63  60  90 CALM      30.17R
KAPALUA-W MAUI NOT AVBL
HANA AIRPORT   PTCLDY    68  66  94 CALM      30.22R
HANA*            N/A     70 N/A N/A S5          N/A
HALEAKALA SUMM   N/A     41  16  36 SE43        N/A
MAALAEA BAY*     N/A     73 N/A N/A N12G21      N/A
HALEAKALA*     NOT AVBL
KAUPO GAP*       N/A     75  36  23 N8G15       N/A
KULA 1*          N/A    N/A N/A N/A NE10G21     N/A
$$

HIZ023>026-251600-
BIG ISLAND OF HAWAII COAST AND LOWER SLOPES-

CITY           SKY/WX    TMP DP  RH WIND       PRES   REMARKS
KAILUA KONA    MOCLDY    76  66  71 N6        30.11F
HILO           CLEAR     65  55  70 SW8       30.19R
HONOKAA*         N/A     66 N/A N/A VRB1        N/A
KAWAIHAE MWT*    N/A     75 N/A N/A E3          N/A
KAWAIHAE*        N/A     73 N/A N/A NE3       30.12S
SOUTH POINT*     N/A     66 N/A N/A NW13G20     N/A
UPOLU AIRPORT* NOT AVBL
KAMUELA*       MOSUNNY   61  57  88 NE13      30.25R
HAKALAU*         N/A    N/A N/A N/A SW6G14      N/A
KALOKO-HONOKO*   N/A     75  66  73 NE1       30.11S
PALI 2*          N/A     59  48  67 SW10G20     N/A
KEALAKOMO*       N/A     73  64  73 N15         N/A
KAUPULEHU*       N/A     66  59  77 SE3G12      N/A
KAPAPALA*        N/A     55  55  98 NW5         N/A
LOWER KAHUKU*    N/A     55  55 100 N2G10       N/A
PUHE CS*         N/A     73  54  49 E3          N/A
PUHO CS*         N/A     73  61  65 E2          N/A
PTA KEAMUKU*     N/A     57  52  82 CALM        N/A
WAIKOLOA*        N/A     66  55  68 E14G25      N/A
$$

HIZ027>028-251600-
BIG ISLAND OF HAWAII INTERIOR AND SUMMMITS-

CITY           SKY/WX    TMP DP  RH WIND       PRES   REMARKS
BRADSHAW FIELD CLOUDY    63  10  12 SE17G26   30.40F
MK VISITOR CEN   N/A     48   9  20 E14         N/A
MAUNA KEA*       N/A     27  -6  24 E14         N/A  WCI  15
MAUNA LOA*       N/A     37   5  25 MISG        N/A
MAUNA LOA 1*   NOT AVBL
PTA KIPUKA*      N/A     52  45  76 SE7         N/A
PTA RANGE 17*    N/A    N/A N/A N/A SE15G23     N/A
PTA WEST*        N/A     50  46  87 SE7G13      N/A
NENE CABIN*      N/A     52  10  19 NE8G15      N/A
AHUMOA*          N/A    N/A N/A N/A NE8         N/A
PTA PORTABLE*  NOT AVBL
PUU MALI*        N/A     61  14  16 SE17G29     N/A
$$

HIC003-251600-
NORTHWEST ISLANDS-

CITY           SKY/WX    TMP DP  RH WIND       PRES   REMARKS
MIDWAY ISLAND  CLOUDY    68  61  77 S7        30.13F
MIDWAY NOS*      N/A     70 N/A N/A MISG      30.11S
FRENCH FRIGATE NOT AVBL
$$

PHZ110>124-180-251600-
BUOY REPORTS

STATION/POSITION TIME  TEMP    WIND        PRES    WAVE   SWELL
                       AIR SEA DIR/SP/G            HT/PER HT/DIR
                 (UTC) (F)     (DEG/KT/KT) (MB)    (FT/S) (FT/D)
BUOY 51001       1520   74 76   90/  6/  8 1022.5
BUOY 51101       1450   74 76   30/  4/  6 1023.2R   7/21   7/290
BUOY 51100       NOT AVBL
BUOY 51002       1520   77 78   50/ 17/ 21 1018.9
BUOY 51003       1450   77 78   60/ 12/ 14 1019.8S   5/ 9   5/ 90
BUOY 51004       1450      77   60/ 17/ 21 1019.3R   8/ 8   5/ 10
BARBERS PT BUOY  NOT AVBL
WAIMEA BAY BUOY  1502      75                N/A     4/11   3/320
KAILUA BAY BUOY  1504      76                N/A     5/13   2
LANAI BUOY       1515      78                N/A     3/12   2/260
BARBERS PT 2     NOT AVBL
PAUWELA MAUI     1509      76                N/A     5/12   3/330
HILO             1512      78                N/A     6/12   3/350
KANEOHE BAY BUOY 1525      75                N/A     4/ 6   2/350
HANALEI KAUAI    1522      78                N/A     5/11   3/310
KAHULUI HARBOR   1506   74 78  360/ 15/ 18 1021.8
HONOLULU HARBOR  1506   74 78  220/  1/  2 1022.1
KILO NALU        NOT AVBL
HILO HARBOR      1506   67 76  210/  6/  7 1022.2
MOKUOLOE         1436   75 79   80/  3/  5 1021.9S
NAWILIWILI       1506   75 79   70/ 11/ 14 1021.7
WHOTS BUOY       NOT AVBL
BUOY 51028       NOT AVBL
$$

......................KEY........................................
  SKY/WX - SKY CONDITIONS/PRESENT WEATHER
  TMP    - TEMPERATURE IN FAHRENHEIT
  DWPT   - DEWPOINT IN FAHRENHEIT
  RH     - RELATIVE HUMIDITY IN PERCENT
  WIND   - DIRECTION AND SPEED /MPH FOR ISLANDS...KTS FOR BUOYS/
  PRES   - MEAN SEA LEVEL PRESSURE IN INCHES OF HG
  VSB    - VISIBILITY IN MILES
  HX     - HEAT INDEX
  WCI    - WIND CHILL INDEX
  VRB    - VARIABLE WIND DIRECTION
  N/A    - NOT AVAILABLE




USA.gov is the U.S. government's official web portal to all federal, state and local government web resources and services.